Regional Weather Roundup
Issued by NWS

Home | Current Version | Previous Version | Graphics & Text | Print | Product List | Glossary On
Versions: 1 2 3 4 5 6 7 8 9 10 11 12 13 14 15 16 17 18 19 20 21 22 23 24 25 26 27
000
ASUS45 KSLC 182010
RWRUT

UTAH REGIONAL WEATHER ROUNDUP
NATIONAL WEATHER SERVICE SALT LAKE CITY UT
200 PM MDT WED OCT 18 2017

UTZ001>011-023>025-182100-

NORTHERN UTAH

CITY           SKY/WX    TMP DP  RH WIND       PRES   REMARKS
BRIGHAM CITY   SUNNY     65  21  18 CALM      30.18F
DUGWAY         MOSUNNY   65  17  15 W5        30.18F
HILL AFB       SUNNY     65  22  19 NW6       30.19F
LOGAN          SUNNY     67  28  23 CALM      30.18F
OGDEN          SUNNY     66  26  22 VRB5      30.18F
SALT LAKE CITY MOSUNNY   68  29  23 CALM      30.18F
TOOELE VALLEY  SUNNY     63  32  31 E3        30.19F
WENDOVER       SUNNY     57  22  25 SE5       30.19F
WEST JORDAN    SUNNY     64  32  30 NW6       30.20F

$$

UTZ011>015-024>027-182100-

CENTRAL/NORTHEAST UTAH

CITY           SKY/WX    TMP DP  RH WIND       PRES   REMARKS
PROVO AIRPORT  SUNNY     61  28  28 W5        30.19F
MOAB/CANYONLAN SUNNY     70  12  10 VRB3      30.16F
DELTA          MOSUNNY   64  18  16 SW3       30.18F
PRICE          SUNNY     66  14  13 CALM      30.22F
RICHFIELD      SUNNY     68  19  15 CALM      30.19F
ROOSEVELT      SUNNY     64  14  14 CALM      30.23F
VERNAL         SUNNY     66  15  14 CALM      30.22F

$$

UTZ013>016-019>022-027-182100-

SOUTHERN UTAH

CITY           SKY/WX    TMP DP  RH WIND       PRES   REMARKS
BRYCE CANYON   PTSUNNY   67  11  11 VRB7      30.29F
CEDAR CITY     CLOUDY    65  18  16 W3        30.19F
MILFORD        MOSUNNY   70  16  12 NE10      30.17F
ST GEORGE      CLEAR     69  24  18 CALM      30.08F
HANKSVILLE     MOSUNNY   68  16  13 NE5       30.20F
KANAB          SUNNY     77  25  14 S6        30.18F
BLANDING         N/A     69  12  11 S5        30.29F

$$

REGIONAL REPORTS     COLORADO/ARIZONA

CITY           SKY/WX    TMP DP  RH WIND       PRES   REMARKS
CRAIG, CO      SUNNY     69   8   9 VRB3      30.24F
GRAND JUNCTION SUNNY     67  15  13 SW3       30.19F
RIFLE, CO      SUNNY     68  14  12 NW3       30.22F
MONTROSE, CO   SUNNY     70  16  12 VRB5      30.22F
CORTEZ, CO     CLOUDY    72  15  11 VRB7      30.22F
COLORADO CITY    N/A     75  25  15 CALM      30.18F
PAGE, AZ       PTSUNNY   70  22  16 N5        30.13F
GRAND CANYON   PTSUNNY   72  23  16 SW12      30.26F
KINGMAN, AZ    CLOUDY    82  27  13 SW12      30.07F
FLAGSTAFF, AZ  MOSUNNY   71  28  20 S10       30.27F

$$

REGIONAL REPORTS    NEVADA/IDAHO/WYOMING

CITY           SKY/WX    TMP DP  RH WIND       PRES   REMARKS
LAS VEGAS, NV  PTSUNNY   78  17  10 NE5       30.02F
ELY, NY        SUNNY     68  15  13 CALM      30.22F
ELKO, NV       SUNNY     66  13  12 CALM      30.18F
POCATELLO, ID  SUNNY     68  27  21 W7        30.17F
BURLEY, ID     SUNNY     68  27  21 CALM      30.13F
FORT BRIDGER,    N/A     67   8  10 W9G17     30.28F
EVANSTON, WY   SUNNY     65   9  11 W15       30.26F
ROCK SPRINGS,  SUNNY     63   8  11 W12G21    30.25F
KEMMERER, WY   SUNNY     61  10  13 W15       30.27F

$$




USA.gov is the U.S. government's official web portal to all federal, state and local government web resources and services.